Time,TemperatureF,DewpointF,PressureIn,WindDirection,WindDirectionDegrees,WindSpeedMPH,WindSpeedGustMPH,Humidity,HourlyPrecipIn,Conditions,Clouds,dailyrainin,SoftwareType,DateUTC
2015-08-27 00:00:00,76.1,75.2,29.95,SE,141,1.0,3.0,97,0.06,,---,0.34,VWS V15.00,2015-08-27 04:00:00,
2015-08-27 00:15:00,76.0,75.1,29.93,SSE,157,3.0,5.0,97,0.06,,---,0.00,VWS V15.00,2015-08-27 04:15:00,
2015-08-27 00:30:00,75.9,75.0,29.92,SSE,157,1.0,3.0,97,0.04,,---,0.00,VWS V15.00,2015-08-27 04:30:00,
2015-08-27 00:45:00,75.9,75.0,29.92,SE,136,0.0,3.0,97,0.01,,---,0.00,VWS V15.00,2015-08-27 04:45:00,
2015-08-27 01:00:00,76.0,75.4,29.91,NE,46,4.0,4.0,98,0.01,,---,0.00,VWS V15.00,2015-08-27 05:00:00,
2015-08-27 01:15:00,76.1,75.2,29.92,NE,55,0.0,4.0,97,0.00,,---,0.00,VWS V15.00,2015-08-27 05:15:00,
2015-08-27 01:30:00,76.0,75.1,29.92,NE,55,1.0,2.0,97,0.00,,---,0.00,VWS V15.00,2015-08-27 05:30:00,
2015-08-27 01:45:00,76.0,75.4,29.92,SSW,196,1.0,3.0,98,0.00,,---,0.00,VWS V15.00,2015-08-27 05:45:00,
2015-08-27 02:00:00,75.8,75.2,29.92,SSW,201,1.0,6.0,98,0.01,,---,0.01,VWS V15.00,2015-08-27 06:00:00,
2015-08-27 02:15:00,75.8,75.2,29.93,WSW,244,1.0,5.0,98,0.01,,---,0.01,VWS V15.00,2015-08-27 06:15:00,
2015-08-27 02:30:00,75.8,75.2,29.93,WNW,300,3.0,6.0,98,0.01,,---,0.01,VWS V15.00,2015-08-27 06:30:00,
2015-08-27 02:45:00,75.8,74.9,29.93,WNW,293,0.0,4.0,97,0.01,,---,0.01,VWS V15.00,2015-08-27 06:45:00,
2015-08-27 03:00:00,75.8,74.9,29.93,WNW,293,1.0,4.0,97,0.01,,---,0.01,VWS V15.00,2015-08-27 07:00:00,
2015-08-27 03:15:00,75.6,74.7,29.92,WNW,293,0.0,2.0,97,0.00,,---,0.01,VWS V15.00,2015-08-27 07:15:00,
2015-08-27 03:30:00,75.5,74.6,29.91,WNW,293,0.0,2.0,97,0.00,,---,0.01,VWS V15.00,2015-08-27 07:30:00,
2015-08-27 03:45:00,75.5,74.6,29.91,WNW,293,1.0,2.0,97,0.00,,---,0.01,VWS V15.00,2015-08-27 07:45:00,
2015-08-27 04:00:00,75.5,74.9,29.90,WNW,293,0.0,2.0,98,0.00,,---,0.01,VWS V15.00,2015-08-27 08:00:00,
2015-08-27 04:15:00,75.5,74.9,29.91,WNW,293,0.0,2.0,98,0.00,,---,0.01,VWS V15.00,2015-08-27 08:15:00,
2015-08-27 04:30:00,75.3,74.7,29.91,WNW,293,1.0,2.0,98,0.00,,---,0.01,VWS V15.00,2015-08-27 08:30:00,
2015-08-27 04:45:00,75.3,74.7,29.91,WNW,293,0.0,2.0,98,0.00,,---,0.01,VWS V15.00,2015-08-27 08:45:00,
2015-08-27 05:00:00,75.3,74.7,29.91,WNW,293,0.0,1.0,98,0.00,,---,0.01,VWS V15.00,2015-08-27 09:00:00,
2015-08-27 05:15:00,75.2,74.6,29.91,WNW,293,0.0,1.0,98,0.00,,---,0.01,VWS V15.00,2015-08-27 09:15:00,
2015-08-27 05:30:00,75.2,74.6,29.91,WNW,293,0.0,0.0,98,0.00,,---,0.01,VWS V15.00,2015-08-27 09:30:00,
2015-08-27 05:45:00,75.2,74.6,29.92,WNW,293,0.0,1.0,98,0.00,,---,0.01,VWS V15.00,2015-08-27 09:45:00,
2015-08-27 06:00:00,75.1,74.5,29.92,WNW,293,1.0,1.0,98,0.00,,---,0.01,VWS V15.00,2015-08-27 10:00:00,
2015-08-27 06:15:00,75.0,74.4,29.92,WNW,293,0.0,1.0,98,0.00,,---,0.01,VWS V15.00,2015-08-27 10:15:00,
2015-08-27 06:30:00,74.9,74.3,29.92,WNW,293,0.0,1.0,98,0.00,,---,0.01,VWS V15.00,2015-08-27 10:30:00,
2015-08-27 06:45:00,74.9,74.3,29.92,WNW,293,0.0,1.0,98,0.00,,---,0.01,VWS V15.00,2015-08-27 10:45:00,
2015-08-27 07:00:00,74.7,74.1,29.92,WNW,293,0.0,1.0,98,0.00,,---,0.01,VWS V15.00,2015-08-27 11:00:00,
2015-08-27 07:15:00,74.9,74.3,29.93,NW,314,0.0,2.0,98,0.00,,---,0.01,VWS V15.00,2015-08-27 11:15:00,
2015-08-27 07:30:00,75.0,74.4,29.93,NW,311,0.0,1.0,98,0.00,,---,0.01,VWS V15.00,2015-08-27 11:30:00,
2015-08-27 07:45:00,75.3,74.7,29.93,SE,126,0.0,2.0,98,0.00,,---,0.01,VWS V15.00,2015-08-27 11:45:00,
2015-08-27 08:00:00,75.9,75.3,29.93,SE,126,0.0,2.0,98,0.00,,---,0.01,VWS V15.00,2015-08-27 12:00:00,
2015-08-27 08:15:00,76.6,76.3,29.92,SE,126,1.0,1.0,99,0.00,,---,0.01,VWS V15.00,2015-08-27 12:15:00,
2015-08-27 08:30:00,77.9,77.3,29.91,SE,126,0.0,3.0,98,0.00,,---,0.01,VWS V15.00,2015-08-27 12:30:00,
2015-08-27 08:45:00,78.3,77.7,29.92,South,171,3.0,3.0,98,0.00,,---,0.01,VWS V15.00,2015-08-27 12:45:00,
2015-08-27 09:00:00,79.1,78.5,29.92,South,171,3.0,3.0,98,0.00,,---,0.01,VWS V15.00,2015-08-27 13:00:00,
2015-08-27 09:15:00,80.9,78.7,29.93,South,189,5.0,5.0,93,0.00,,---,0.01,VWS V15.00,2015-08-27 13:15:00,
2015-08-27 09:30:00,81.3,78.8,29.95,South,186,2.0,6.0,92,0.00,,---,0.01,VWS V15.00,2015-08-27 13:30:00,
2015-08-27 09:45:00,82.5,79.3,29.95,South,178,1.0,4.0,90,0.00,,---,0.01,VWS V15.00,2015-08-27 13:45:00,
2015-08-27 10:00:00,83.9,79.3,29.96,South,178,1.0,4.0,86,0.00,,---,0.01,VWS V15.00,2015-08-27 14:00:00,
2015-08-27 10:15:00,85.1,79.4,29.97,SSE,153,2.0,5.0,83,0.00,,---,0.01,VWS V15.00,2015-08-27 14:15:00,
2015-08-27 10:30:00,85.5,78.6,29.97,SE,138,1.0,6.0,80,0.00,,---,0.01,VWS V15.00,2015-08-27 14:30:00,
2015-08-27 10:45:00,85.4,78.9,29.97,South,180,1.0,6.0,81,0.00,,---,0.01,VWS V15.00,2015-08-27 14:45:00,
2015-08-27 11:00:00,85.2,78.3,29.97,SSW,205,3.0,10.0,80,0.00,,---,0.01,VWS V15.00,2015-08-27 15:00:00,
2015-08-27 11:15:00,85.1,78.2,29.96,SSW,192,4.0,9.0,80,0.00,,---,0.01,VWS V15.00,2015-08-27 15:15:00,
2015-08-27 11:30:00,85.4,78.2,29.96,South,170,4.0,7.0,79,0.00,,---,0.01,VWS V15.00,2015-08-27 15:30:00,
2015-08-27 11:45:00,85.7,78.4,29.96,SSW,198,1.0,8.0,79,0.00,,---,0.01,VWS V15.00,2015-08-27 15:45:00,
2015-08-27 12:00:00,86.1,79.2,29.97,West,265,1.0,8.0,80,0.00,,---,0.01,VWS V15.00,2015-08-27 16:00:00,
2015-08-27 12:15:00,86.4,79.5,29.97,SW,215,2.0,7.0,80,0.00,,---,0.01,VWS V15.00,2015-08-27 16:15:00,
2015-08-27 12:30:00,86.3,78.6,29.96,SSW,196,4.0,9.0,78,0.00,,---,0.01,VWS V15.00,2015-08-27 16:30:00,
2015-08-27 12:45:00,86.8,78.7,29.96,SSW,193,1.0,9.0,77,0.00,,---,0.01,VWS V15.00,2015-08-27 16:45:00,
2015-08-27 13:00:00,86.4,77.9,29.95,SW,228,2.0,9.0,76,0.00,,---,0.01,VWS V15.00,2015-08-27 17:00:00,
2015-08-27 13:15:00,87.5,79.4,29.95,WSW,242,4.0,6.0,77,0.00,,---,0.01,VWS V15.00,2015-08-27 17:15:00,
2015-08-27 13:30:00,88.7,79.3,29.94,WNW,286,2.0,5.0,74,0.00,,---,0.01,VWS V15.00,2015-08-27 17:30:00,
2015-08-27 13:45:00,90.1,80.7,29.94,NW,309,3.0,7.0,74,0.00,,---,0.01,VWS V15.00,2015-08-27 17:45:00,
2015-08-27 14:00:00,90.6,79.9,29.94,SSW,205,2.0,4.0,71,0.00,,---,0.01,VWS V15.00,2015-08-27 18:00:00,
2015-08-27 14:15:00,90.2,78.7,29.93,WNW,299,3.0,4.0,69,0.00,,---,0.01,VWS V15.00,2015-08-27 18:15:00,
2015-08-27 14:30:00,92.2,79.7,29.93,NE,55,0.0,3.0,67,0.00,,---,0.01,VWS V15.00,2015-08-27 18:30:00,
2015-08-27 14:45:00,91.0,79.0,29.93,ENE,69,3.0,10.0,68,0.00,,---,0.01,VWS V15.00,2015-08-27 18:45:00,
2015-08-27 15:00:00,87.2,77.5,29.92,ENE,71,3.0,13.0,73,0.00,,---,0.01,VWS V15.00,2015-08-27 19:00:00,
2015-08-27 15:15:00,85.0,76.2,29.92,ESE,119,6.0,12.0,75,0.00,,---,0.01,VWS V15.00,2015-08-27 19:15:00,
2015-08-27 15:30:00,81.0,73.9,29.90,NE,35,5.0,13.0,79,0.20,,---,0.21,VWS V15.00,2015-08-27 19:30:00,
2015-08-27 15:45:00,76.1,73.0,29.93,NW,319,29.0,30.0,90,0.84,,---,0.85,VWS V15.00,2015-08-27 19:45:00,
2015-08-27 16:00:00,73.0,71.2,29.98,NNE,22,4.0,10.0,94,1.95,,---,1.96,VWS V15.00,2015-08-27 20:00:00,
2015-08-27 16:15:00,72.5,71.3,29.96,North,360,2.0,10.0,96,2.17,,---,2.18,VWS V15.00,2015-08-27 20:15:00,
2015-08-27 16:30:00,72.4,71.2,29.95,East,80,2.0,12.0,96,2.17,,---,2.18,VWS V15.00,2015-08-27 20:30:00,
2015-08-27 16:45:00,72.4,71.2,29.95,SW,215,2.0,6.0,96,1.99,,---,2.20,VWS V15.00,2015-08-27 20:45:00,
2015-08-27 17:00:00,72.4,71.5,29.95,SE,136,4.0,6.0,97,1.37,,---,2.22,VWS V15.00,2015-08-27 21:00:00,
2015-08-27 17:15:00,72.3,71.4,29.94,SE,136,1.0,5.0,97,0.27,,---,2.23,VWS V15.00,2015-08-27 21:15:00,
2015-08-27 17:30:00,72.5,71.6,29.94,South,176,3.0,4.0,97,0.05,,---,2.23,VWS V15.00,2015-08-27 21:30:00,
2015-08-27 17:45:00,72.5,71.6,29.93,SE,144,2.0,4.0,97,0.05,,---,2.23,VWS V15.00,2015-08-27 21:45:00,
2015-08-27 18:00:00,72.9,72.0,29.92,SE,143,0.0,3.0,97,0.03,,---,2.23,VWS V15.00,2015-08-27 22:00:00,
2015-08-27 18:15:00,73.7,73.1,29.92,WNW,288,2.0,3.0,98,0.02,,---,2.24,VWS V15.00,2015-08-27 22:15:00,
2015-08-27 18:30:00,73.9,73.3,29.92,NNW,345,5.0,6.0,98,0.01,,---,2.24,VWS V15.00,2015-08-27 22:30:00,
2015-08-27 18:45:00,74.4,73.8,29.92,NW,314,2.0,5.0,98,0.01,,---,2.24,VWS V15.00,2015-08-27 22:45:00,
2015-08-27 19:00:00,74.3,73.4,29.92,North,5,0.0,4.0,97,0.01,,---,2.24,VWS V15.00,2015-08-27 23:00:00,
2015-08-27 19:15:00,74.2,73.3,29.93,WNW,299,1.0,3.0,97,0.01,,---,2.24,VWS V15.00,2015-08-27 23:15:00,
2015-08-27 19:30:00,74.1,73.2,29.93,WNW,299,0.0,1.0,97,0.00,,---,2.24,VWS V15.00,2015-08-27 23:30:00,
2015-08-27 19:45:00,73.8,72.9,29.94,WNW,299,0.0,1.0,97,0.00,,---,2.24,VWS V15.00,2015-08-27 23:45:00,
2015-08-27 20:00:00,73.5,72.6,29.95,WNW,299,0.0,1.0,97,0.00,,---,2.24,VWS V15.00,2015-08-28 00:00:00,
2015-08-27 20:15:00,73.3,72.4,29.96,WNW,299,0.0,1.0,97,0.00,,---,2.24,VWS V15.00,2015-08-28 00:15:00,
2015-08-27 20:30:00,73.2,72.6,29.97,WNW,299,0.0,1.0,98,0.00,,---,2.24,VWS V15.00,2015-08-28 00:30:00,
2015-08-27 20:45:00,73.1,72.5,29.97,WNW,299,0.0,1.0,98,0.00,,---,2.24,VWS V15.00,2015-08-28 00:45:00,
2015-08-27 21:00:00,73.1,72.5,29.97,WNW,299,0.0,1.0,98,0.00,,---,2.24,VWS V15.00,2015-08-28 01:00:00,
2015-08-27 21:15:00,73.1,72.5,29.97,WNW,299,1.0,1.0,98,0.00,,---,2.24,VWS V15.00,2015-08-28 01:15:00,
2015-08-27 21:30:00,73.3,72.7,29.97,WNW,299,0.0,1.0,98,0.00,,---,2.24,VWS V15.00,2015-08-28 01:30:00,
2015-08-27 22:00:00,73.3,72.7,29.98,SSW,202,0.0,3.0,98,0.00,,---,2.24,VWS V15.00,2015-08-28 02:00:00,
2015-08-27 22:15:00,73.2,72.6,29.98,SSW,202,1.0,1.0,98,0.00,,---,2.24,VWS V15.00,2015-08-28 02:15:00,
2015-08-27 22:30:00,73.3,72.7,29.98,SSW,202,1.0,3.0,98,0.00,,---,2.24,VWS V15.00,2015-08-28 02:30:00,
2015-08-27 22:45:00,73.2,72.6,29.99,SSW,202,1.0,2.0,98,0.00,,---,2.24,VWS V15.00,2015-08-28 02:45:00,